カタログに戻る

STARLINK-30824

運用中通信VLEO
NORAD 58176·PAYLOAD·🇺🇸 United States

打ち上げ Oct 30, 2023 から Cape Canaveral Space Force Station

Loading…

次のパス (今後24時間)

TLE

最新Source: CelesTrak SupGP

元期: Sep 14, 2026, 21:21 UTC

1 58176C 23167B   26257.89006944 -.00043455  00000+0 -15741-2 0  2577
2 58176  43.0007 155.0612 0001270 268.7486 285.9840 15.27597089    14

AllMySatでSTARLINK-30824をリアルタイム追跡

Download on the App Store